RH
31 30 31 28 35 42 33 49 72 64 69 92 96 100 101 95 95 100 101 97 98 100 100 99 100 99 95 72 39 32 38 38 30 23 27 52 89 99 102 82 53 45 32 28 25 14 10 12 36 52 36 15 7 16 29 30 25 20 16 14 16 22 30 36 35 34 31 30 27 30 36 35 31 28 26 25 27 29 30 30 29 32 37 41 42 43 44 46 52 60 66 68 69 67 64 66 69
28 29 30 28 34 43 36 49 78 76 82 101 101 100 100 99 100 100 101 101 100 102 103 103 103 94 72 45 34 36 33 33 30 25 21 38 76 93 85 57 44 42 28 29 22 12 9 17 46 51 28 11 10 22 27 24 20 15 14 14 17 25 33 36 34 33 30 29 27 30 37 34 31 28 27 26 27 29 29 30 30 33 35 38 41 43 43 43 42 43 46 48 51 54 56 59 64
22 27 28 29 30 35 37 49 82 91 88 99 100 100 100 98 100 100 101 101 101 103 102 103 101 82 58 46 41 37 33 31 25 24 25 28 44 56 50 38 44 38 25 27 16 11 13 26 54 49 21 8 14 22 21 19 16 13 14 14 19 30 36 36 34 32 28 29 28 31 37 33 29 28 28 29 30 31 31 33 34 36 37 38 39 40 41 41 41 40 39 38 38 38 39 40 41
17 23 25 32 31 31 37 48 83 98 91 98 101 100 100 99 101 99 100 101 101 101 101 104 101 83 65 54 43 37 33 29 25 25 28 30 33 35 33 35 45 36 27 26 13 12 19 37 57 44 16 8 16 18 18 17 13 14 13 13 24 34 37 35 33 30 28 31 30 33 36 31 28 29 30 30 30 30 32 35 37 40 41 42 43 44 44 44 44 42 41 37 34 32 31 31 30
15 17 22 33 37 33 33 48 81 98 98 101 101 101 100 100 100 99 100 99 98 100 102 101 94 79 62 50 40 34 29 27 26 25 29 32 31 31 35 44 47 34 27 25 14 11 20 44 58 37 12 11 16 15 15 13 12 14 11 17 29 35 36 34 30 28 30 32 31 35 33 28 28 30 30 29 27 28 30 33 37 41 44 47 48 48 49 48 44 40 40 37 31 28 26 24 23
13 15 20 32 41 44 47 57 77 94 102 102 99 101 100 100 101 100 99 98 100 101 95 89 83 68 50 44 38 31 31 30 27 26 28 28 29 33 45 59 52 33 27 25 15 10 21 51 58 29 10 13 14 12 13 12 13 12 13 23 31 35 35 31 29 27 30 32 32 32 28 27 30 30 29 28 29 30 30 32 36 40 45 49 51 53 54 50 41 36 37 35 29 29 31 27 22
12 14 19 29 34 48 64 60 62 84 101 104 101 99 99 100 102 101 98 101 100 91 85 87 79 57 43 41 36 35 39 34 30 29 26 26 27 34 54 67 53 34 30 24 13 10 26 57 55 21 10 14 11 10 12 12 13 11 17 26 32 35 33 30 27 27 31 31 30 27 26 29 29 29 28 29 31 32 32 32 33 37 44 50 54 56 59 56 42 34 35 32 28 37 45 33 24
12 15 18 26 29 42 60 51 52 83 99 100 101 100 100 100 101 103 101 100 95 84 81 79 62 44 40 38 34 39 41 35 32 30 29 29 27 36 55 60 48 36 32 23 12 13 34 62 48 16 12 12 9 10 12 12 11 14 21 27 33 34 32 29 25 27 30 27 26 25 27 28 27 28 29 31 33 34 35 34 35 36 43 52 58 61 63 62 46 32 32 30 28 49 61 40 25
12 16 18 25 30 36 44 47 64 91 102 100 101 100 97 99 100 102 104 100 97 92 75 56 46 44 41 35 35 39 38 36 34 35 37 34 32 38 45 45 41 36 30 21 12 17 43 64 39 12 12 9 8 10 12 12 12 17 24 29 33 33 31 27 24 28 27 24 25 25 26 26 28 30 32 37 38 39 38 38 39 36 42 56 64 66 61 56 46 31 27 28 29 57 77 60 48
12 14 19 22 27 42 51 66 90 98 98 98 99 97 92 96 100 102 104 99 97 93 66 46 45 42 36 33 37 41 40 37 37 49 54 43 35 36 38 39 39 36 28 18 11 20 51 63 31 10 11 8 8 11 12 11 14 21 25 30 32 32 30 25 25 27 24 24 24 24 26 28 31 34 37 41 44 46 45 44 46 41 42 57 67 68 59 46 39 29 24 26 25 51 82 79 74
13 11 16 19 29 64 80 86 99 90 81 89 97 99 96 95 100 102 96 84 81 75 57 48 43 32 31 34 35 40 42 36 36 50 59 50 38 36 38 39 40 37 26 15 11 24 58 59 24 9 9 7 9 12 11 11 18 24 27 31 32 32 27 24 25 25 23 23 23 24 28 31 35 38 44 49 50 50 52 50 49 45 43 53 65 66 56 41 34 30 22 22 23 34 67 84 84
14 11 16 22 30 56 62 60 75 73 65 81 97 96 97 99 101 98 85 77 75 68 58 46 34 28 31 32 30 34 40 36 33 40 47 48 44 39 40 43 44 40 24 12 11 30 62 53 19 9 9 7 10 11 9 14 22 25 29 30 33 32 25 24 24 23 22 22 23 25 30 35 39 42 52 60 56 51 53 53 47 43 42 50 62 62 54 43 36 34 22 18 23 23 40 69 82
13 12 17 23 30 37 33 48 84 88 68 79 101 98 96 101 99 91 81 81 78 71 62 42 32 33 33 34 32 33 37 37 40 48 50 51 47 38 43 49 47 40 23 11 13 37 64 47 16 9 8 8 10 10 10 17 23 26 30 31 35 31 24 24 23 23 21 22 22 26 34 38 45 52 61 66 61 53 52 56 51 42 42 48 57 59 54 46 35 31 22 17 21 20 23 37 58
14 13 15 17 27 31 33 66 95 80 57 67 89 92 95 96 85 77 76 75 69 67 60 43 38 39 36 36 36 36 35 40 50 54 51 48 40 32 44 53 44 35 22 14 18 43 65 41 13 9 7 9 10 9 11 20 24 28 31 33 36 29 23 25 23 22 21 21 22 29 37 44 56 62 65 67 64 56 53 63 58 41 39 45 51 53 49 40 30 23 19 18 17 17 19 19 29
14 14 15 17 24 28 39 68 68 48 51 73 81 70 70 76 74 76 83 83 74 67 56 47 44 37 36 32 31 37 32 37 43 40 41 37 26 26 45 52 39 28 22 22 26 48 65 36 11 9 7 9 9 9 14 22 26 30 33 35 36 27 22 25 24 22 22 21 24 32 41 56 68 68 70 70 67 60 54 61 53 36 35 43 45 41 36 31 25 20 17 18 16 14 17 17 19
13 13 14 17 22 22 32 46 45 49 65 89 99 72 54 70 90 95 93 89 79 66 55 51 42 29 33 30 27 35 31 34 38 36 37 29 23 31 45 48 37 31 29 31 36 55 64 32 10 8 7 9 9 10 17 24 28 31 34 36 35 24 21 25 23 23 24 21 25 32 46 70 74 77 82 73 80 78 57 47 37 30 31 39 41 33 34 37 27 18 17 16 16 16 16 16 18
11 13 14 17 23 21 26 32 37 56 68 87 107 91 75 83 93 91 79 72 68 63 60 56 47 39 38 31 31 39 34 32 34 32 33 31 32 33 38 43 42 39 36 41 49 61 60 28 9 8 8 10 8 12 20 25 29 32 35 37 31 20 20 24 23 24 25 24 29 35 53 70 70 89 92 74 88 80 47 32 24 23 25 30 34 30 39 48 36 22 20 18 16 16 16 16 16
9 12 14 18 27 24 24 29 33 43 53 72 91 89 87 83 75 71 65 66 71 73 73 62 57 57 45 35 37 37 30 25 25 26 30 33 29 26 34 44 47 42 39 51 61 67 56 23 8 9 8 9 9 14 22 27 30 33 36 35 26 17 19 22 21 23 24 27 32 39 52 55 67 101 94 69 72 54 35 30 19 19 22 27 30 29 34 41 34 26 25 19 16 16 15 16 16
9 11 13 18 28 28 22 24 30 32 35 47 60 67 75 71 57 52 60 76 79 72 66 52 54 61 45 39 37 28 26 24 23 23 24 26 24 28 39 46 47 38 41 62 72 69 49 17 7 8 9 9 10 16 24 28 31 35 37 30 21 16 19 21 21 21 22 26 29 35 40 43 69 97 78 53 46 34 36 32 21 24 25 24 26 26 31 35 29 24 25 19 15 16 15 16 16
8 9 12 15 21 25 23 23 26 28 33 35 39 53 61 57 58 66 76 77 60 42 36 33 41 46 35 32 28 19 20 19 25 29 25 25 29 40 48 49 43 35 49 71 76 66 37 10 8 8 9 10 11 20 25 29 33 36 34 24 18 16 17 20 22 21 22 24 25 29 32 40 58 64 47 34 28 28 33 28 26 27 22 19 19 23 32 35 25 19 19 18 17 16 16 17 16
7 8 9 13 19 21 21 22 25 28 32 34 38 47 48 56 79 83 67 53 41 30 27 28 30 34 35 33 24 18 15 14 24 27 22 27 43 61 59 47 36 36 59 77 76 61 27 7 9 8 9 10 14 23 27 30 35 36 28 19 17 17 16 20 22 21 21 22 24 27 31 37 41 36 28 23 21 23 22 24 29 25 19 18 18 23 29 26 18 19 19 17 18 17 17 18 17
9 8 7 12 18 19 20 20 24 27 30 35 39 46 55 69 73 51 35 42 46 36 25 24 27 34 40 37 35 37 30 24 25 26 40 62 81 82 58 38 35 44 66 80 73 50 20 7 9 8 10 11 17 25 28 32 36 32 22 17 18 17 16 19 23 23 21 23 26 28 29 32 31 26 22 20 21 20 19 30 38 30 22 21 22 24 23 21 22 24 23 21 21 21 21 20 20
13 12 11 15 17 17 19 21 25 31 38 46 51 64 79 72 49 33 38 49 41 30 25 24 28 32 33 37 45 47 37 28 28 41 67 88 93 78 51 38 44 57 76 81 64 36 14 8 8 9 10 12 20 27 29 34 36 27 18 17 19 18 17 17 21 25 25 26 26 25 27 29 28 24 22 23 24 23 27 37 38 29 24 25 26 26 26 33 38 32 27 28 27 25 24 23 24
17 16 17 17 18 17 17 23 36 50 60 72 81 89 83 54 35 39 51 51 29 20 36 35 23 30 44 49 41 29 23 20 24 37 52 68 77 67 48 44 58 76 84 77 55 29 11 8 9 9 10 15 24 28 31 37 34 22 16 18 18 17 15 14 18 22 24 25 22 22 26 31 29 25 24 25 26 29 33 33 29 26 28 29 27 29 31 37 43 39 31 27 29 28 25 26 27
15 17 20 19 23 25 28 46 69 82 85 95 100 87 70 46 28 28 40 45 21 18 57 63 35 36 50 48 30 18 18 19 26 34 40 59 67 54 43 52 78 89 80 66 46 24 9 8 10 9 11 19 27 29 34 37 29 19 17 18 18 16 14 14 15 16 19 19 18 24 29 32 30 26 25 26 30 34 37 35 31 33 34 29 25 28 31 32 34 37 36 29 35 38 28 27 28
13 13 17 23 32 36 47 78 98 99 98 104 95 72 66 56 29 15 20 24 15 27 66 75 57 47 38 32 24 17 18 24 33 38 43 55 51 40 43 67 94 88 73 62 36 16 12 12 10 8 14 24 29 32 36 34 23 18 18 18 16 15 15 15 14 14 16 16 20 28 30 29 28 27 26 28 33 34 36 36 33 35 36 33 33 34 32 30 30 33 33 30 36 38 29 27 28
12 11 12 16 31 47 70 99 103 98 104 99 79 70 74 64 37 19 15 15 15 26 43 52 55 45 29 25 20 19 25 28 33 40 47 48 38 38 48 75 101 88 73 60 26 11 15 15 10 9 18 27 31 34 36 28 19 18 18 16 15 14 15 15 15 14 15 16 20 27 27 24 25 26 26 30 33 32 33 34 32 31 34 40 44 46 40 30 33 39 35 32 34 30 27 28 28
11 11 12 10 19 41 65 79 77 79 89 75 60 64 64 51 35 19 15 16 13 17 26 35 40 33 29 28 24 36 52 50 48 50 46 35 31 43 51 65 90 86 74 53 19 8 12 14 12 11 22 31 33 35 31 22 17 20 18 15 14 14 15 15 15 15 16 17 21 27 26 23 24 25 27 30 32 32 32 32 31 30 30 36 37 41 42 30 31 37 33 33 34 28 27 29 28
11 10 12 12 12 20 26 29 32 43 51 43 40 43 36 31 27 17 15 14 11 13 20 34 39 32 29 24 27 58 86 88 81 68 44 27 34 59 65 62 72 76 67 40 12 9 10 12 12 13 26 33 35 32 24 19 18 19 17 15 14 14 15 15 15 19 20 20 23 27 26 25 24 24 28 30 30 30 31 32 31 30 29 31 30 31 34 29 28 29 28 29 29 28 28 28 28
10 10 11 12 12 12 12 11 13 19 20 19 21 20 18 20 20 20 18 11 11 12 15 28 34 30 27 22 34 74 101 95 82 64 39 31 50 73 77 69 67 64 51 25 8 10 10 10 12 17 30 35 34 28 19 19 19 18 18 15 14 14 14 15 16 20 22 22 25 26 25 25 23 27 31 29 29 28 30 33 33 31 29 29 30 30 29 28 27 26 27 27 27 28 28 28 28
10 11 11 11 12 11 12 13 12 12 11 12 13 13 13 13 16 21 17 11 14 16 16 19 18 28 43 44 49 67 76 68 62 54 37 42 61 68 67 63 56 46 30 14 7 10 9 9 13 21 33 36 30 23 18 19 19 18 18 15 13 14 14 15 16 18 20 21 25 27 27 25 26 34 34 27 29 30 31 35 36 33 30 29 30 30 30 29 28 26 27 27 27 29 29 29 29
11 11 11 11 11 10 11 13 14 14 12 13 13 14 14 14 14 16 15 15 16 16 18 20 20 40 64 60 50 53 60 57 53 49 40 45 54 52 51 48 41 29 15 9 8 10 8 8 14 25 36 34 24 20 19 19 19 19 18 15 14 14 15 16 15 17 20 25 27 28 31 30 28 31 29 29 33 32 31 34 36 36 33 30 30 30 31 30 30 29 28 28 29 29 30 31 32
12 12 11 10 10 10 11 12 14 14 14 14 13 13 14 15 14 14 16 17 17 17 21 29 33 55 79 62 45 64 84 72 51 46 42 41 42 39 38 34 28 20 10 9 10 9 8 9 17 29 36 29 19 19 20 19 19 19 19 15 13 16 16 15 16 17 19 29 35 35 35 31 25 26 28 34 42 38 31 31 35 37 35 34 32 31 31 31 32 32 31 32 32 33 33 33 34
12 12 11 10 10 10 11 12 13 13 13 13 12 13 14 15 14 13 15 15 20 23 28 37 34 49 78 71 58 72 83 70 52 47 42 34 33 32 27 25 23 16 10 10 11 8 7 11 21 32 34 23 17 19 19 19 19 19 18 15 14 17 17 16 18 17 17 26 38 42 39 31 30 37 36 38 49 50 35 28 33 35 36 37 36 35 34 34 34 34 35 35 35 36 36 36 37
11 11 11 10 10 10 11 11 12 12 12 13 12 12 13 14 13 13 14 14 18 21 27 37 30 29 49 63 67 64 62 63 53 46 43 31 26 27 22 21 20 15 12 13 11 7 7 13 23 35 31 17 16 20 19 19 20 20 18 14 15 17 17 17 19 19 17 22 31 37 36 33 38 44 41 39 47 52 41 29 30 32 33 35 37 38 38 39 39 38 38 38 39 40 40 41 40
11 11 11 11 11 11 11 12 13 13 12 13 13 13 13 14 14 13 15 13 14 18 23 31 32 24 27 41 52 50 51 57 49 44 45 34 24 23 20 20 18 15 17 16 11 7 8 14 26 37 30 14 17 20 19 20 20 21 18 14 16 18 17 18 22 23 19 19 23 27 29 32 37 39 38 40 40 43 42 34 28 28 29 31 33 34 35 37 38 38 38 38 41 44 45 46 46
12 12 12 12 12 12 11 12 14 15 14 13 14 14 14 14 14 14 15 13 13 16 19 25 31 26 22 26 34 38 39 42 45 47 45 36 29 24 20 20 16 15 21 19 11 7 8 16 30 41 29 13 17 20 18 21 20 21 19 15 17 18 17 21 26 29 24 19 18 20 23 26 33 37 35 35 34 35 38 37 33 29 28 29 28 28 29 30 31 32 33 33 35 41 47 50 50
13 13 13 13 12 12 12 13 14 15 16 15 14 14 14 14 15 14 14 14 13 13 13 18 28 30 24 18 22 33 32 31 42 49 46 40 32 25 22 21 16 18 25 19 10 7 9 18 34 44 30 13 17 19 18 20 19 21 20 16 18 17 19 25 27 28 27 23 18 18 20 21 28 37 37 34 32 32 36 38 36 31 30 29 29 28 27 27 27 27 28 28 29 32 40 46 50
14 14 14 14 13 13 12 13 13 15 17 17 15 14 14 13 13 14 14 14 14 14 13 13 24 36 29 15 19 33 33 32 41 49 50 44 35 28 24 21 19 22 26 19 10 7 9 19 36 46 30 13 17 18 18 20 19 21 21 19 19 17 23 30 26 23 26 26 20 18 20 21 22 26 31 32 30 34 40 41 35 30 31 31 31 31 31 28 26 25 25 26 26 27 30 36 42
15 14 15 14 14 13 12 13 13 13 15 16 14 13 13 12 12 14 14 15 15 15 15 12 18 31 26 16 18 25 28 35 43 48 52 49 41 32 26 24 22 24 26 19 10 6 8 19 38 47 28 12 18 18 18 21 19 20 21 20 20 18 25 32 27 22 24 24 21 20 19 20 21 22 26 27 29 36 41 40 33 28 29 29 29 30 31 30 27 25 25 24 25 25 27 29 33
16 15 15 15 14 13 12 13 12 12 14 15 14 13 13 13 13 15 14 16 16 15 16 13 13 19 19 17 18 17 22 33 38 44 54 60 54 37 28 29 24 22 26 19 9 6 9 19 40 50 29 13 17 18 19 21 20 21 20 21 22 21 26 33 31 26 24 23 21 21 20 20 22 23 24 25 27 31 32 32 30 26 26 26 27 29 29 29 26 25 25 24 25 24 24 25 27
17 16 17 16 15 14 13 13 12 12 14 16 15 14 15 15 14 15 15 16 17 15 15 15 14 14 13 15 16 15 20 30 34 36 47 66 75 53 31 32 32 25 23 19 10 4 10 23 43 52 32 14 16 18 19 20 20 21 21 21 22 22 24 28 31 29 28 26 24 22 21 21 22 22 23 24 25 25 25 26 26 26 26 26 27 28 29 30 31 29 24 23 24 23 23 22 24
18 18 19 18 15 14 13 12 12 12 13 16 16 14 16 16 15 16 16 16 17 17 16 16 15 14 13 13 14 14 17 25 34 37 40 59 82 71 42 35 39 33 25 19 10 4 11 23 41 52 35 15 15 17 17 20 21 21 21 21 21 21 22 24 27 30 33 31 28 26 23 22 22 22 23 23 23 23 22 23 25 26 27 27 29 33 39 45 49 44 30 22 22 22 21 20 21
21 21 19 18 16 15 14 12 13 13 14 15 15 15 16 16 17 18 18 18 18 17 17 17 15 14 14 13 12 14 15 19 32 40 40 50 75 79 53 38 40 39 31 21 11 4 9 22 38 50 38 18 15 17 17 19 20 21 21 20 21 21 22 23 26 30 35 33 28 26 25 24 23 23 22 22 22 22 22 21 22 24 26 29 37 46 52 56 61 56 35 21 21 21 20 20 19
22 22 20 19 18 16 15 13 13 15 14 14 15 18 19 19 21 21 19 20 19 19 19 18 17 15 14 14 12 15 16 19 29 38 38 42 63 76 62 46 43 44 36 23 14 5 7 20 33 45 41 21 14 18 17 18 20 20 20 20 21 21 21 22 25 29 32 30 26 25 25 25 24 23 22 22 22 22 23 23 22 23 25 34 48 53 52 54 61 54 31 20 21 21 21 20 20
24 24 21 21 19 18 17 14 15 16 15 15 19 23 23 22 23 22 21 21 20 20 19 18 18 15 14 14 12 14 17 19 27 37 37 33 45 65 70 56 45 47 45 28 13 6 7 18 29 42 42 23 14 18 17 17 19 18 20 20 20 20 20 21 23 26 28 27 25 25 26 27 24 23 22 22 22 22 22 22 23 24 28 41 54 49 44 55 64 50 26 20 22 21 22 21 21
26 24 23 22 21 21 19 17 17 16 16 21 25 27 26 24 23 23 23 22 20 20 20 19 18 16 15 14 13 13 14 17 23 30 36 35 34 50 72 71 56 54 54 35 15 6 7 15 26 39 42 25 15 17 17 17 18 18 20 20 20 20 20 21 22 23 25 26 26 25 26 27 25 24 23 22 22 21 22 22 23 26 33 47 50 39 39 56 66 52 28 22 23 21 21 21 21
27 26 25 24 23 22 20 19 18 18 23 30 31 28 26 25 25 24 22 20 20 20 19 19 18 16 15 13 14 13 11 16 21 28 41 45 35 39 65 83 81 72 60 39 20 10 7 11 22 36 41 26 15 17 17 16 17 18 19 19 19 20 19 21 21 22 23 23 24 24 24 24 23 23 23 22 22 21 21 22 23 27 34 41 39 33 37 49 56 49 32 24 23 21 21 21 21
27 26 26 25 24 23 22 22 22 24 31 33 30 24 22 24 24 20 18 18 19 18 18 17 17 17 15 13 14 12 12 16 21 36 56 55 40 40 59 80 91 87 68 44 26 13 8 9 15 32 40 26 16 16 16 16 17 17 18 18 18 19 20 21 21 21 22 22 22 22 22 23 22 22 22 22 22 22 22 23 25 26 29 31 32 34 39 43 44 39 30 25 22 20 20 19 20
29 29 29 28 27 27 27 27 27 30 33 30 25 21 19 22 23 18 16 18 19 17 17 16 15 16 14 13 14 11 13 17 26 48 68 64 48 44 57 78 93 87 64 48 35 18 10 8 10 28 39 27 17 16 15 16 18 17 18 18 18 19 19 20 21 21 21 21 21 21 21 22 22 22 22 22 22 22 23 25 25 26 28 30 33 39 47 52 51 41 31 25 22 20 20 19 18
33 32 31 30 30 30 29 29 29 28 28 25 21 19 20 21 21 17 15 16 17 17 17 15 14 16 14 13 13 12 13 15 30 53 65 68 59 42 46 74 97 92 68 55 45 23 10 9 11 28 39 28 17 16 16 16 17 17 18 18 18 19 19 19 20 20 20 21 20 20 20 21 21 21 21 21 21 22 23 24 26 27 29 33 41 46 52 62 65 55 40 30 24 22 22 21 20
37 33 30 30 31 32 30 29 29 26 24 22 20 21 21 20 20 18 15 16 17 17 16 15 14 14 14 13 12 17 17 12 28 48 51 66 73 51 42 62 93 103 87 71 54 28 15 10 11 28 39 30 18 16 16 16 18 18 18 18 19 19 19 20 20 20 20 20 19 20 20 20 21 21 21 22 22 22 23 24 27 30 32 37 44 47 51 64 72 66 54 41 31 28 31 31 29
41 37 35 37 36 33 31 30 28 25 23 22 22 24 23 21 21 20 18 18 18 17 15 14 14 13 13 13 12 24 29 14 22 39 41 60 81 70 58 65 88 106 101 82 53 28 20 12 9 24 36 30 20 16 16 17 18 18 17 19 19 19 19 19 20 20 19 20 20 20 21 22 22 22 22 23 22 23 24 25 29 33 37 41 42 45 53 63 67 63 56 47 41 43 47 48 45
39 39 40 41 38 32 30 29 26 24 23 23 24 25 23 22 22 21 19 18 17 16 15 13 13 12 12 12 12 27 37 21 17 33 38 51 75 79 68 64 77 95 100 86 54 29 24 15 10 22 33 30 21 17 17 17 18 18 18 18 18 18 19 19 19 20 19 20 21 21 22 22 22 23 23 24 25 26 25 25 28 32 38 44 47 52 59 63 62 60 57 55 55 57 58 58 57
34 37 38 38 36 32 30 30 27 26 25 25 24 24 23 22 21 20 18 18 16 15 15 13 12 12 11 13 12 21 37 29 17 27 37 43 59 69 63 56 65 78 83 76 54 34 28 17 11 21 30 29 23 18 17 17 17 17 17 18 18 18 19 19 19 19 20 20 20 20 20 20 21 22 23 25 27 29 28 27 27 30 39 51 59 64 67 68 68 68 67 66 67 65 63 62 60
33 34 33 33 32 30 30 30 29 27 26 25 24 22 22 21 20 19 17 17 16 14 14 13 12 11 11 13 12 15 33 35 19 20 34 41 47 55 55 54 66 81 86 78 57 40 32 20 13 20 29 29 24 19 18 17 16 16 17 17 18 18 19 19 19 18 19 19 19 19 18 19 20 20 22 24 26 29 31 32 37 44 52 59 67 73 74 74 75 73 72 69 65 61 56 54 53
32 33 33 33 30 28 30 29 27 27 25 24 23 21 21 20 18 18 17 16 15 14 14 12 11 12 10 13 12 10 25 37 25 17 28 38 39 43 47 53 67 87 102 96 67 42 33 22 14 19 28 28 24 21 19 18 17 16 17 18 18 19 19 18 19 18 19 19 18 19 19 20 20 19 21 23 25 30 32 39 55 69 73 70 69 73 74 74 72 69 65 60 54 50 46 44 45
32 33 34 36 34 32 32 30 27 27 25 24 23 22 21 19 18 18 16 15 14 13 13 12 11 11 10 12 12 8 16 31 28 18 23 33 35 36 43 50 57 72 94 99 76 48 34 25 16 18 26 26 24 23 20 19 18 16 17 19 19 20 19 19 20 19 20 22 24 28 29 28 25 23 22 22 24 29 34 48 69 77 77 75 72 73 72 70 67 62 57 53 50 47 45 42 42
Wind_Speed
12 12 11 10 10 10 10 9 8 6 5 3 3 3 4 8 8 8 8 6 6 8 8 9 12 13 16 21 21 22 22 22 23 25 26 27 27 26 27 30 31 31 32 31 32 34 34 32 30 30 30 29 28 26 23 19 17 14 12 11 11 9 7 8 9 11 14 16 15 11 10 13 15 16 17 18 18 18 18 19 19 20 20 19 19 17 15 12 9 7 5 4 4 6 7 8 9
14 14 13 12 12 12 11 10 8 6 6 5 5 3 5 8 9 10 9 8 9 10 12 13 14 16 19 22 23 23 23 24 25 26 28 28 28 28 29 32 31 31 32 31 32 35 34 30 29 30 29 28 28 24 20 17 14 11 10 10 10 8 7 9 10 12 15 16 13 10 11 13 15 17 18 21 22 23 23 22 22 22 22 21 20 20 19 18 16 13 10 6 3 2 4 7 9
15 15 15 15 14 14 12 11 9 8 8 7 6 4 4 7 9 10 7 6 10 12 14 16 17 19 21 23 24 25 26 27 28 29 29 29 29 29 31 32 31 31 32 31 33 34 32 28 28 30 29 28 26 21 17 14 11 10 9 10 9 7 8 10 11 14 16 14 12 11 11 13 15 17 20 23 25 25 26 26 25 25 24 23 23 22 21 20 19 17 15 12 8 4 0 4 7
17 17 16 16 15 15 14 12 10 10 9 7 6 5 6 8 9 9 8 10 12 12 15 17 19 22 24 25 26 28 29 30 30 30 30 30 30 31 32 32 31 31 32 32 34 33 29 27 28 29 28 27 24 18 14 11 9 8 8 9 8 7 9 10 13 15 15 13 12 12 12 14 16 18 21 23 24 25 26 26 26 25 24 24 24 23 22 22 20 19 17 15 12 8 4 3 5
18 18 18 17 16 16 16 14 12 10 9 8 7 5 7 8 8 8 10 13 13 13 16 18 21 24 26 27 28 30 31 31 31 32 31 31 31 32 33 32 30 31 32 33 33 31 28 27 28 28 27 26 21 15 11 8 8 7 8 8 7 8 10 12 14 15 13 13 13 13 14 15 17 19 21 23 24 25 26 26 25 25 24 24 24 23 23 22 21 20 19 17 15 13 9 4 4
20 20 20 19 17 17 17 15 13 12 11 10 9 7 7 8 9 9 10 13 13 15 19 21 23 25 27 27 29 31 32 32 32 32 33 33 33 33 33 31 30 32 33 33 32 29 26 26 27 27 26 24 17 11 8 7 6 6 8 8 8 9 10 12 14 13 13 13 14 14 16 17 18 20 21 22 23 24 25 25 25 25 24 24 23 23 23 23 23 22 21 20 19 18 14 9 2
22 22 22 21 19 19 17 16 15 14 13 11 10 10 8 10 13 12 12 14 15 18 20 21 24 27 28 28 30 32 32 33 33 33 34 34 34 34 33 31 31 33 33 32 31 28 25 25 27 26 25 21 13 9 7 6 5 6 7 8 8 9 10 13 13 12 13 14 15 17 18 18 19 20 21 22 22 23 24 24 25 25 24 23 23 23 23 23 23 23 23 22 22 21 19 15 9
23 24 24 23 22 21 18 17 16 14 13 13 12 11 11 14 17 15 13 16 19 21 21 23 26 29 29 30 33 33 33 34 35 35 36 35 35 34 33 32 32 33 32 30 28 26 23 24 26 25 23 17 10 8 5 4 5 6 7 8 9 9 11 12 11 12 13 15 17 18 19 19 19 20 20 22 22 23 23 23 24 25 24 23 22 22 22 22 24 24 24 25 24 24 22 20 17
25 25 25 24 23 23 21 19 17 14 13 13 12 12 14 16 18 18 17 20 22 21 22 26 29 29 30 32 34 34 35 35 35 36 36 36 35 34 34 33 32 32 31 28 26 24 22 24 25 23 20 14 9 6 4 4 5 6 8 9 8 8 10 10 11 12 14 16 18 19 19 19 19 20 21 22 23 23 22 22 24 25 24 23 22 22 22 23 24 25 25 26 26 26 25 25 23
27 26 25 25 24 24 24 20 16 14 13 11 11 11 15 18 17 20 22 23 24 25 28 30 30 31 32 34 34 35 35 35 35 35 34 35 35 35 35 33 32 31 28 26 25 22 21 23 23 21 17 11 7 4 2 4 4 6 8 9 8 7 9 9 11 13 15 17 18 18 19 19 19 20 22 23 23 23 23 23 24 25 24 23 22 22 23 24 25 26 26 27 27 27 27 27 27
28 27 26 26 26 25 24 21 18 17 15 13 13 11 14 20 19 21 24 26 28 30 31 31 31 33 34 34 35 35 35 35 35 35 34 35 35 36 35 33 31 28 25 26 24 20 20 22 22 19 13 8 6 2 2 4 4 6 8 9 7 7 8 9 11 13 15 16 17 17 18 18 19 20 21 23 24 23 23 24 24 25 25 24 23 23 24 25 25 27 27 28 28 28 28 28 28
31 29 28 27 28 27 25 23 22 21 18 16 17 18 18 20 22 24 26 27 28 30 31 32 33 35 35 35 36 36 36 37 37 35 35 36 36 36 35 32 29 26 26 26 23 19 19 21 20 17 10 7 4 1 2 4 5 6 8 8 6 7 8 9 12 13 14 16 16 16 17 18 18 19 20 22 24 24 23 24 25 25 25 24 23 23 24 25 26 27 29 29 29 29 28 27 26
33 31 29 29 29 28 26 24 24 22 21 19 20 24 24 22 23 26 28 29 31 32 32 33 34 35 35 35 36 36 37 37 36 35 34 35 36 35 34 31 28 27 27 26 21 18 19 20 19 14 8 6 2 1 3 4 5 7 8 7 6 7 8 9 12 13 14 15 15 15 16 17 18 19 20 22 24 25 24 24 24 25 25 24 23 22 23 25 27 29 30 30 30 30 29 26 24
35 33 31 29 29 29 27 26 25 23 23 23 24 26 26 27 27 28 30 32 34 34 34 34 35 34 35 36 36 36 36 36 35 34 34 35 35 34 32 30 29 29 28 25 20 17 18 19 17 11 7 5 1 2 3 4 5 7 8 7 6 7 8 9 11 12 13 13 13 14 15 16 17 19 21 22 24 24 24 23 24 24 24 23 23 22 23 25 27 29 30 30 30 30 29 27 25
38 36 34 31 31 32 30 29 28 27 25 24 27 29 28 30 32 32 32 33 34 35 36 36 36 37 37 37 37 37 36 36 36 36 36 36 35 33 31 30 30 30 28 23 18 16 17 18 14 8 6 4 1 3 4 5 6 7 7 6 6 6 8 9 10 11 12 12 12 12 13 15 17 20 21 22 23 23 23 22 23 23 23 22 22 22 23 25 27 29 29 29 29 29 29 28 26
40 38 36 34 34 35 34 32 30 29 27 24 26 30 31 32 32 33 33 33 35 36 37 38 39 40 39 37 37 37 35 35 35 36 36 36 34 32 30 30 30 29 27 22 17 16 17 16 12 6 5 3 3 3 4 6 6 7 6 5 5 5 7 9 9 10 11 10 10 10 12 15 17 19 21 21 21 22 23 22 22 22 22 21 21 22 22 24 26 28 28 29 28 28 28 28 27
40 39 39 38 36 36 35 34 33 30 29 27 27 29 30 32 33 34 35 35 37 38 37 36 37 38 36 36 35 34 34 34 34 35 35 34 32 31 30 30 30 28 24 19 16 15 16 15 9 5 4 3 3 4 5 6 6 6 6 5 5 5 7 8 9 9 9 9 8 9 11 14 16 18 20 20 20 21 22 22 22 23 23 22 22 23 22 23 25 26 27 28 28 27 27 28 27
40 40 41 40 38 37 37 36 36 35 33 32 31 30 31 33 34 34 36 37 38 37 36 34 33 32 32 32 33 33 34 35 35 35 34 33 32 31 30 30 28 26 21 16 15 15 15 12 7 5 4 4 4 5 6 6 6 6 6 5 4 4 7 8 8 8 8 8 8 10 12 14 16 17 19 19 19 20 21 22 23 24 25 24 24 24 24 24 25 26 27 27 27 27 27 28 27
41 40 41 41 40 39 39 38 38 38 37 36 33 32 32 33 34 34 34 34 34 34 35 33 31 29 29 31 32 32 31 32 33 33 33 32 31 30 29 28 26 23 18 14 14 15 14 10 5 4 4 5 5 5 6 6 6 6 5 4 3 5 7 8 8 8 8 8 9 11 14 15 16 16 17 18 19 20 21 22 23 24 25 25 25 25 25 25 26 27 26 27 27 27 27 28 28
39 40 40 41 41 39 39 39 39 38 37 37 35 33 33 33 32 32 33 33 32 32 32 30 29 29 29 29 30 30 29 29 30 31 31 30 29 28 26 25 23 19 14 13 14 14 12 7 4 4 6 6 6 6 6 6 6 5 4 3 4 6 7 7 7 7 8 8 9 12 14 15 15 15 16 18 20 21 21 22 24 25 26 26 26 26 26 26 27 28 27 27 27 28 28 28 28
36 37 39 39 39 39 39 38 38 38 37 37 35 33 31 29 28 29 30 31 30 29 28 27 26 26 26 25 25 26 27 28 28 29 29 29 28 25 23 22 19 14 12 13 13 13 10 6 4 5 7 7 7 7 6 6 5 4 3 3 4 6 6 7 6 6 7 8 9 12 14 15 15 16 18 20 22 23 23 24 25 26 27 28 28 28 28 28 28 29 29 28 28 28 28 29 29
32 34 36 36 36 36 36 36 36 36 36 35 34 31 28 26 25 25 25 25 25 22 22 22 22 21 20 21 21 21 22 24 26 27 27 27 25 23 21 19 14 10 11 12 12 11 8 6 5 7 8 7 7 7 6 6 5 3 3 3 5 7 7 6 6 6 6 7 10 12 13 14 16 18 19 21 23 23 23 25 26 26 28 29 30 30 30 31 31 31 30 30 29 29 29 30 31
27 29 31 32 32 33 33 32 30 30 30 31 30 27 23 21 20 19 18 19 18 16 16 17 17 17 18 19 19 19 20 21 23 25 26 25 24 22 19 15 10 9 11 12 11 10 7 6 6 9 9 8 8 8 7 5 4 3 3 4 6 7 7 7 6 6 6 7 9 11 13 14 17 19 20 22 24 24 24 26 27 27 29 30 30 31 31 31 31 32 32 32 31 32 32 33 33
21 23 25 27 29 30 29 27 23 24 25 26 25 23 21 18 16 15 14 14 14 13 13 14 14 15 17 18 18 19 21 22 23 25 26 26 24 21 17 11 7 8 10 11 11 9 8 7 8 10 9 9 8 8 7 5 4 3 3 4 7 8 8 8 7 7 6 7 10 11 13 15 18 20 21 23 25 26 28 29 29 29 31 32 32 32 32 32 32 32 34 35 34 35 35 36 37
17 18 20 22 25 26 25 22 21 23 24 23 22 21 20 16 13 13 13 13 13 12 12 12 13 14 16 17 19 20 22 23 24 25 25 25 23 20 15 8 6 8 10 11 10 9 8 8 10 11 10 9 9 8 7 5 4 2 3 5 8 8 8 8 9 9 9 10 12 13 14 16 18 20 22 25 27 27 29 30 30 30 32 34 35 35 35 35 35 35 36 37 36 36 38 40 41
16 17 17 19 21 23 23 21 22 23 23 22 21 21 20 16 14 13 13 13 12 11 11 13 13 15 17 18 19 20 22 23 24 25 25 25 23 18 12 7 6 8 11 11 9 9 9 9 12 11 10 10 9 8 6 5 4 3 3 6 8 8 9 10 11 12 13 14 15 15 16 17 19 20 23 26 27 28 28 29 30 31 31 34 35 37 37 37 38 38 38 38 38 38 42 45 45
18 18 17 17 19 21 23 23 24 23 22 22 21 20 19 17 15 14 13 13 12 11 13 15 16 17 17 17 18 20 21 23 24 24 24 24 21 14 9 7 8 9 11 11 9 10 10 11 12 11 11 11 10 8 6 5 4 3 4 8 9 9 10 12 14 15 16 16 17 17 17 19 21 22 24 25 26 28 29 29 30 32 32 32 33 34 36 37 38 38 38 38 40 42 45 47 47
20 20 19 18 19 21 23 24 24 23 23 23 22 20 19 18 16 14 14 13 13 13 14 16 17 17 15 16 17 18 19 20 20 20 21 21 16 10 7 8 9 10 12 10 10 11 10 12 13 12 12 11 10 8 7 6 5 4 5 9 9 10 12 14 16 17 18 18 18 18 19 20 22 23 24 25 26 27 28 28 30 32 33 34 34 34 34 36 37 37 37 39 41 43 45 47 47
21 21 21 20 21 22 23 23 24 23 23 23 22 21 19 18 17 16 14 13 13 13 14 15 16 16 16 16 16 15 16 16 16 17 17 14 9 6 4 6 8 11 12 10 11 12 11 14 14 13 13 12 10 8 7 7 5 5 7 9 10 12 14 16 17 18 18 19 19 20 20 21 23 24 24 24 25 25 26 27 28 31 33 34 35 34 34 35 36 37 38 40 42 42 43 44 45
23 23 22 21 23 24 23 23 24 24 24 23 22 21 20 19 18 17 14 13 13 13 13 14 15 15 16 15 14 13 14 15 16 16 13 7 4 3 2 4 7 9 10 11 12 12 13 15 14 14 13 12 10 9 8 7 6 7 9 9 10 13 16 18 18 18 18 19 20 21 21 22 23 23 22 22 23 24 26 26 27 29 32 33 33 33 33 34 36 37 39 40 40 40 40 40 40
25 24 23 24 25 25 24 24 25 25 25 24 23 22 21 19 18 17 15 13 13 13 13 14 14 14 13 13 13 13 14 17 17 14 8 3 2 2 2 4 7 8 9 11 12 12 15 16 15 15 14 12 11 10 9 7 7 8 10 10 11 14 17 19 19 19 20 20 21 21 20 21 20 19 19 20 22 25 27 28 28 29 31 31 31 31 31 32 34 35 36 35 35 34 34 33 33
27 27 27 27 27 25 24 25 26 26 26 25 24 24 22 20 20 18 17 14 13 13 12 12 13 12 12 12 12 14 15 17 15 11 6 2 2 2 3 6 7 7 8 11 12 13 16 16 15 15 14 13 12 11 9 8 8 9 11 11 12 15 18 19 20 20 21 21 20 20 19 18 18 18 19 21 23 25 27 27 28 29 30 30 29 29 29 29 29 29 28 27 26 26 26 26 25
31 31 31 30 28 26 26 27 27 27 27 27 26 25 23 23 22 20 18 16 15 13 11 11 12 11 11 12 13 13 15 16 14 9 4 2 3 3 4 7 8 8 9 11 12 14 17 17 16 16 14 13 13 12 10 9 10 10 12 12 13 16 18 19 20 20 20 18 18 18 18 18 18 19 20 22 23 24 25 26 28 29 29 29 28 26 25 25 24 23 22 21 20 20 21 20 21
36 35 33 32 29 27 27 29 29 28 29 28 27 26 24 25 25 21 19 18 16 13 11 12 11 10 11 13 12 12 15 15 12 7 4 3 4 4 5 7 8 9 10 11 12 15 18 17 17 16 14 14 14 13 11 11 11 11 13 13 14 16 17 18 18 18 17 15 15 16 16 18 18 19 19 20 20 21 24 25 26 27 27 27 27 25 24 24 23 21 20 19 18 18 17 17 17
40 36 34 31 29 28 28 30 31 31 30 29 29 28 26 27 26 23 21 20 18 15 13 13 11 11 11 12 12 13 14 13 10 7 3 3 4 4 5 7 9 10 10 10 12 16 19 18 18 16 14 14 14 13 12 12 12 13 14 15 15 16 17 18 17 17 16 15 16 16 16 17 16 16 17 17 18 20 22 23 23 24 25 25 25 25 24 24 24 22 21 20 19 19 18 17 15
40 37 34 32 31 30 30 31 33 32 32 31 30 30 28 28 28 24 23 22 20 19 16 14 12 12 13 12 12 13 13 12 10 7 4 3 4 4 5 7 9 10 10 10 12 17 19 18 18 16 15 15 15 14 13 13 13 14 16 16 16 17 17 17 16 15 15 15 16 16 16 16 15 15 15 16 18 19 20 20 20 21 21 22 23 22 23 23 22 22 21 21 21 21 21 21 20
40 39 36 34 33 32 32 33 34 34 34 33 32 31 30 29 29 27 25 24 23 22 19 16 14 13 13 12 11 12 12 12 9 6 5 4 5 5 6 7 9 10 10 10 13 18 19 19 18 16 15 15 15 15 14 14 13 14 16 17 17 17 17 16 14 13 14 15 15 15 15 15 14 13 14 15 16 17 18 18 17 17 18 19 20 20 20 20 20 19 19 20 20 21 22 23 23
43 41 39 37 36 36 35 35 36 36 36 36 34 33 32 32 32 30 28 26 25 25 22 18 17 15 14 12 11 11 12 11 9 7 6 6 6 5 6 8 9 11 11 11 14 19 20 20 20 17 16 16 16 15 15 14 14 14 16 17 17 16 16 14 12 12 13 14 15 14 14 13 12 11 13 13 14 14 15 15 15 14 15 16 17 17 17 18 18 18 18 19 19 20 21 22 24
45 43 41 40 40 39 39 37 38 37 38 39 37 36 35 35 34 32 31 29 26 27 25 20 18 17 15 13 11 12 12 10 9 8 8 8 7 7 6 7 9 11 13 12 15 21 21 21 21 19 18 17 16 15 14 14 14 14 15 16 17 16 15 13 11 12 14 14 14 14 13 12 11 11 12 12 13 13 12 12 13 13 13 13 14 15 15 16 16 16 17 17 18 19 20 21 23
46 45 43 44 44 43 41 40 40 39 39 41 39 38 38 36 35 33 33 31 28 28 27 24 22 19 17 15 13 12 12 11 10 10 10 10 9 8 8 8 10 12 13 12 16 21 22 22 21 20 19 19 17 16 15 15 14 14 15 15 16 16 15 13 12 13 13 14 14 13 12 11 10 10 10 10 12 11 10 10 10 11 11 11 13 13 14 14 14 15 15 16 17 18 19 19 20
47 47 46 47 48 46 44 43 43 41 40 42 41 39 38 37 37 36 35 33 31 30 29 28 27 24 21 18 15 13 12 12 11 11 12 12 11 10 10 10 9 12 13 13 16 21 22 22 22 20 20 19 18 17 16 15 15 14 14 14 15 15 14 13 13 12 13 13 13 12 12 11 10 9 9 10 10 10 9 8 8 8 9 10 11 12 13 13 13 14 14 15 16 16 17 18 18
49 49 48 51 50 48 47 46 44 42 40 42 42 40 39 39 39 38 37 35 34 32 30 30 31 29 25 21 18 16 13 13 12 12 13 14 13 12 11 11 9 12 13 14 17 22 23 23 23 21 21 20 20 19 17 17 16 15 15 15 15 15 15 14 13 12 12 12 12 12 11 11 10 10 9 9 9 8 8 7 6 6 7 9 10 11 12 12 13 13 14 14 15 16 17 17 17
51 50 51 53 52 50 50 47 45 43 41 43 43 41 40 41 40 40 38 37 37 34 31 31 31 32 30 24 21 19 16 14 12 11 13 15 14 14 14 14 12 12 14 16 19 24 25 25 25 23 22 21 21 20 19 18 17 16 16 16 15 15 14 14 13 13 13 12 12 12 12 11 10 10 10 9 8 7 7 6 6 5 6 7 9 10 11 12 12 12 13 13 14 15 16 17 17
53 54 54 54 53 52 52 49 46 45 43 43 43 42 42 42 41 42 41 39 38 36 34 33 32 32 33 27 23 21 18 16 14 12 13 15 15 16 16 16 15 14 15 17 20 24 26 26 26 24 23 22 22 22 21 19 19 18 17 16 15 15 15 14 14 14 13 13 13 13 12 11 11 11 11 10 8 7 6 6 5 5 5 6 8 9 10 11 11 12 12 12 13 14 15 16 17
55 57 56 55 54 53 53 50 47 46 45 43 42 43 43 42 42 44 44 42 41 40 38 37 34 32 34 30 24 23 21 18 16 13 13 15 16 17 18 18 18 17 16 17 20 25 26 27 27 26 24 23 23 23 22 21 21 20 19 17 16 16 16 15 15 14 14 14 14 13 12 11 11 11 11 10 9 8 7 6 5 5 5 6 6 7 9 10 10 11 11 11 12 13 14 15 17
58 59 57 55 55 54 53 51 48 47 44 42 42 44 45 45 44 45 46 45 45 44 43 40 35 32 34 32 27 25 24 21 18 16 14 15 16 18 20 21 21 19 18 18 21 26 27 28 29 28 26 25 24 24 24 23 22 21 19 18 18 17 16 16 15 15 15 15 14 13 12 12 12 11 11 10 9 8 7 6 5 4 5 5 4 6 8 9 8 9 10 11 12 12 13 15 16
60 59 57 56 55 54 54 51 49 47 43 43 46 46 47 47 45 47 49 50 48 46 45 41 36 34 35 34 29 28 27 24 21 18 16 16 17 19 21 21 21 21 20 20 23 27 28 29 30 29 27 26 25 25 25 24 23 21 21 20 19 18 17 17 16 16 15 15 14 14 13 13 13 12 11 10 9 8 7 5 4 3 3 2 2 6 8 8 8 8 9 10 10 11 12 13 15
60 59 57 57 56 55 54 52 50 45 42 47 51 50 49 47 48 52 54 52 49 47 46 42 37 35 36 35 32 29 28 26 23 20 18 17 17 19 20 21 22 22 21 21 23 27 29 30 30 30 29 28 27 26 26 25 24 23 22 21 20 19 18 18 17 17 16 15 15 15 14 14 13 12 11 9 8 7 6 4 3 3 2 2 3 6 7 7 7 7 8 8 9 10 11 12 13
61 60 59 58 57 56 53 52 49 46 47 52 55 54 50 48 53 56 53 50 49 48 47 44 39 37 36 36 35 31 28 28 26 22 21 19 17 18 20 22 23 23 21 21 23 26 28 29 30 31 31 30 29 28 26 25 24 23 22 22 21 20 19 19 18 17 16 16 15 15 14 14 12 11 10 8 7 6 5 4 3 3 3 4 5 6 7 7 7 7 7 8 9 10 10 11 12
63 62 61 59 58 55 53 53 51 50 52 56 58 54 48 48 54 54 50 49 49 48 47 44 39 37 38 38 37 32 28 30 28 25 24 22 19 18 21 23 24 24 23 22 24 27 29 29 30 31 32 31 30 28 26 25 25 24 23 23 22 21 20 19 18 17 17 16 15 15 14 13 11 10 9 8 7 6 6 5 5 5 4 5 6 7 8 9 9 8 8 8 9 10 11 12 13
65 64 63 60 57 55 55 55 55 55 56 57 58 52 46 51 55 52 49 47 46 46 46 42 36 36 38 38 37 33 32 33 31 28 27 25 21 19 21 23 25 25 26 25 26 28 30 30 31 31 32 31 30 28 27 26 26 25 24 23 22 21 21 20 19 18 17 16 15 14 13 12 11 10 10 9 8 8 8 7 7 6 6 6 7 9 10 11 12 11 10 9 10 11 12 13 14
65 64 62 58 56 57 57 58 58 58 57 55 54 49 48 52 53 49 47 44 42 43 43 39 35 35 37 37 36 35 36 37 35 32 30 27 24 21 20 22 23 25 27 27 26 28 30 31 31 32 33 33 32 29 27 27 27 26 25 24 23 23 21 20 19 19 18 17 16 14 13 12 12 11 11 11 10 10 9 9 9 8 8 8 8 10 11 12 13 13 13 12 12 12 13 14 15
64 63 58 56 59 60 60 60 60 58 54 51 50 50 51 51 50 47 45 43 41 40 40 38 35 34 36 37 37 37 40 40 37 35 33 28 26 23 20 21 23 27 27 26 26 27 28 30 31 34 35 35 34 32 30 29 29 28 27 26 25 23 22 21 20 20 18 17 16 15 14 14 13 13 12 12 11 11 11 11 11 10 10 10 10 11 11 12 13 14 14 14 14 14 14 15 16
64 61 58 60 64 62 60 60 59 55 50 49 50 52 51 49 47 47 46 44 41 39 39 38 36 35 36 38 39 41 43 43 40 38 34 30 27 26 24 23 25 28 27 26 26 26 27 30 33 35 37 37 36 35 33 32 32 30 28 27 25 24 23 22 21 20 19 17 16 16 16 15 15 14 13 13 13 13 14 14 13 12 11 11 12 12 11 12 12 14 15 15 16 16 17 17 18
62 61 62 65 64 60 58 58 56 52 49 50 51 52 49 46 47 47 45 44 43 42 41 40 39 38 36 38 41 44 46 46 43 40 36 33 31 30 28 25 25 27 27 26 26 27 27 29 34 37 38 39 39 37 35 34 34 32 30 28 26 25 24 23 23 21 19 18 18 18 17 16 15 15 15 15 15 15 15 15 15 14 13 12 12 12 12 12 13 14 16 17 18 19 20 20 21
62 62 64 64 62 59 58 57 55 52 50 51 52 50 48 47 48 47 45 44 44 42 41 41 42 40 38 40 44 46 48 48 47 43 40 37 34 31 28 25 23 24 26 27 28 28 27 29 34 38 39 41 41 40 39 38 36 34 31 29 28 26 26 25 24 22 21 20 20 19 18 18 17 17 18 17 17 17 16 16 15 15 14 13 12 12 13 13 14 15 17 18 19 21 22 23 24
62 62 62 62 60 57 56 56 53 51 50 51 51 49 49 49 48 46 45 45 43 41 39 41 44 42 40 44 47 47 49 51 51 47 43 41 36 31 28 26 24 24 27 30 31 31 29 30 35 39 41 43 44 42 41 40 37 34 32 30 29 28 28 27 25 24 23 22 22 21 21 20 20 20 20 19 19 18 18 16 16 15 15 14 14 14 14 15 16 16 18 19 21 23 24 26 27
65 63 62 63 61 57 56 55 52 50 51 51 50 50 51 50 47 45 45 43 40 39 38 41 45 44 43 47 49 47 48 52 53 48 45 43 38 34 31 29 28 28 29 32 34 35 33 32 35 40 43 45 45 44 43 41 38 35 33 32 31 31 30 28 27 25 24 24 23 23 22 22 22 22 21 21 20 20 19 17 17 16 16 16 16 16 16 16 17 19 20 22 24 25 27 29 30
Wind_Direction
224 225 228 232 231 235 238 237 245 250 240 220 227 211 219 261 274 268 269 273 253 256 270 279 288 290 291 303 313 318 320 321 323 323 323 325 324 319 317 323 328 329 331 334 334 333 332 331 332 332 331 332 333 335 339 343 345 347 350 2 15 18 20 15 5 357 355 356 2 14 24 20 27 36 41 50 57 62 67 69 71 72 73 73 72 73 75 78 86 101 126 155 187 206 218 222 226
229 229 230 233 233 235 238 242 250 253 244 221 226 236 223 246 264 273 280 271 257 263 273 275 280 287 296 305 312 315 317 319 321 320 320 322 324 319 317 323 328 329 331 332 333 332 331 331 333 332 331 332 334 337 343 347 350 352 358 13 19 19 18 11 2 356 355 359 9 28 33 29 37 45 52 59 62 63 65 66 67 68 67 68 69 68 68 67 68 70 75 80 102 188 221 226 231
233 233 233 234 237 241 239 239 243 247 247 240 250 261 250 254 269 284 282 259 260 258 260 268 280 293 301 307 311 313 315 316 317 318 318 319 320 319 320 324 326 329 331 331 331 332 332 333 334 332 332 334 336 340 347 353 355 356 5 18 21 23 20 9 0 356 357 4 23 41 40 39 47 54 59 62 63 63 63 64 65 65 64 64 64 63 62 61 60 59 58 57 53 46 275 228 228
236 235 237 235 237 243 243 235 234 246 248 245 252 256 277 275 275 284 263 256 267 260 263 271 281 295 302 306 309 310 312 314 316 316 317 316 318 319 322 324 324 328 330 330 331 332 332 334 333 332 333 335 337 343 353 358 357 359 12 24 27 29 20 7 359 357 2 19 40 48 47 50 56 60 61 61 61 61 60 60 60 60 60 59 59 58 58 56 55 54 52 48 43 32 3 281 243
237 238 239 237 237 242 246 240 232 240 242 243 245 256 285 277 267 269 256 263 265 261 274 281 288 298 302 305 307 309 311 312 314 315 315 315 317 319 321 323 324 328 330 330 331 330 331 334 332 331 333 336 338 348 359 359 359 7 20 31 38 33 19 6 358 1 15 36 50 54 57 61 63 62 60 59 58 58 57 56 55 54 54 54 53 52 52 50 49 49 48 43 38 28 14 340 272
235 240 240 236 237 238 239 239 235 235 245 255 249 253 275 275 273 265 257 267 262 267 282 285 293 300 302 306 308 310 310 311 312 313 314 315 317 319 320 322 325 328 330 331 330 329 331 332 331 330 335 337 340 355 4 360 7 18 30 45 46 33 18 3 360 12 32 48 57 62 67 68 66 62 59 58 57 56 55 54 52 51 50 50 49 48 47 45 45 45 45 42 36 29 22 16 351
234 238 239 237 237 238 235 237 239 239 248 257 249 249 261 263 263 254 253 262 263 272 282 285 292 299 302 306 307 308 308 310 312 312 314 315 317 318 319 322 324 328 331 329 328 329 330 330 329 331 336 336 343 3 4 4 20 28 46 58 48 34 14 2 8 29 47 57 65 71 73 70 65 60 57 55 54 53 53 52 51 49 48 48 47 46 46 44 43 45 46 43 39 36 34 37 53
233 234 237 238 238 239 240 242 245 243 244 252 252 246 251 257 255 249 243 255 266 272 276 284 292 297 301 304 305 305 306 309 311 312 313 314 315 316 318 321 323 327 329 328 328 329 330 329 328 332 335 335 350 6 4 22 33 44 64 65 51 34 9 6 23 45 59 67 73 77 75 69 63 57 52 50 50 50 50 50 49 48 48 48 48 46 46 44 43 46 48 47 44 44 49 55 65
233 234 235 237 238 240 242 242 245 241 237 251 262 251 253 262 265 257 242 253 267 269 276 286 291 295 299 302 303 304 306 308 310 311 313 313 314 315 317 319 322 326 327 326 327 328 328 327 328 333 335 338 357 6 14 46 48 64 77 69 56 29 8 17 41 59 68 74 79 78 73 67 59 53 49 47 47 48 48 48 47 45 47 49 49 47 46 45 45 47 50 51 50 51 57 64 70
233 236 237 237 238 241 240 238 235 231 229 241 254 251 256 261 269 263 252 260 269 272 282 288 290 294 298 300 301 303 305 307 309 311 311 311 313 315 317 319 322 325 325 325 326 326 326 326 328 333 335 343 358 7 48 64 69 85 84 73 59 24 14 35 58 70 74 80 82 77 70 63 57 52 47 44 44 45 46 45 44 42 44 48 48 46 45 45 48 49 51 53 54 56 59 64 70
232 235 238 239 239 238 235 234 232 233 233 234 240 238 249 254 257 261 260 267 272 277 283 285 288 294 296 297 299 301 303 305 307 308 308 309 312 314 316 318 322 324 324 325 325 324 323 324 328 331 336 345 353 19 80 81 91 98 89 76 58 20 26 54 70 76 79 84 82 74 67 61 57 52 47 43 41 42 43 42 41 39 41 44 45 44 44 45 48 49 51 53 56 58 61 64 67
230 233 236 238 240 239 238 241 243 245 240 233 241 239 243 249 249 256 265 269 272 278 282 284 289 292 293 294 296 298 300 303 304 305 304 306 310 314 316 318 320 321 322 323 323 321 320 323 327 330 337 342 343 79 101 99 110 106 92 78 52 24 42 69 79 81 85 87 81 72 65 60 57 52 48 42 39 40 41 40 39 37 39 42 43 43 44 45 48 50 51 53 55 57 61 64 67
230 231 234 238 241 243 245 246 244 245 242 236 241 242 246 254 256 262 269 270 273 278 282 287 289 289 290 292 294 296 299 301 302 303 303 306 310 313 314 316 317 316 319 322 321 317 317 322 325 329 337 334 326 131 118 115 122 112 94 78 46 31 55 78 85 85 88 88 81 72 63 60 56 50 45 40 37 38 39 39 37 36 39 42 43 44 45 46 48 51 52 53 55 57 60 63 66
230 231 233 237 242 245 246 246 244 245 248 244 244 246 250 257 264 269 271 273 275 278 282 286 287 287 288 290 293 294 296 298 300 301 302 305 308 310 311 313 313 313 317 321 317 313 315 320 324 328 332 320 285 147 132 129 130 114 93 76 42 38 66 83 89 89 90 89 82 73 63 58 53 46 42 38 37 36 37 37 36 36 39 44 46 47 48 49 51 52 53 54 56 58 61 62 65
231 231 233 235 239 242 243 245 248 251 252 251 250 250 252 259 265 268 271 275 276 278 281 282 284 286 287 288 290 292 294 296 297 298 300 302 305 307 308 309 310 312 317 319 313 308 313 319 322 324 321 303 197 155 141 136 133 113 91 72 40 44 74 87 94 94 92 90 84 72 60 54 49 43 39 38 38 36 36 36 37 39 42 47 50 53 53 53 54 54 54 55 56 58 61 63 64
233 233 234 235 237 239 242 245 248 252 251 249 253 255 255 260 264 267 272 276 277 280 281 281 283 284 285 287 288 291 292 294 296 297 298 299 301 303 305 307 308 312 317 317 308 304 310 316 317 315 307 271 178 160 145 140 135 112 87 68 42 53 83 94 100 98 95 92 83 67 53 48 45 41 37 37 39 37 37 38 41 45 48 51 54 57 57 56 57 57 56 56 55 57 59 62 64
235 235 236 236 237 238 242 245 246 248 248 245 253 260 259 261 263 268 273 276 279 282 281 281 283 282 283 285 286 289 290 291 294 295 296 297 299 301 303 306 308 313 318 313 302 300 307 312 308 305 290 220 176 166 147 143 136 110 86 68 44 69 93 99 105 103 98 91 78 59 47 42 41 40 34 34 38 40 42 45 49 53 57 58 58 59 59 58 58 58 58 56 56 55 57 61 63
232 233 235 237 239 240 242 245 246 247 250 248 253 260 261 263 265 270 274 276 278 279 279 279 280 280 280 282 283 286 287 288 290 292 294 296 297 299 302 305 309 314 316 306 296 296 303 305 297 293 263 193 179 169 148 146 133 103 82 64 51 88 101 103 109 109 99 86 70 55 45 40 41 40 34 33 40 46 50 53 56 61 62 63 62 60 60 61 59 58 58 58 58 56 57 59 61
232 231 233 236 240 241 242 245 248 249 252 253 254 258 261 266 270 274 276 277 278 277 277 275 274 276 278 279 281 283 285 286 287 289 291 293 296 299 301 304 309 314 311 299 292 293 299 294 280 274 223 184 185 167 149 146 127 95 77 63 69 97 103 109 111 107 96 82 66 53 44 40 41 40 36 39 48 54 56 58 63 65 65 65 65 63 62 62 60 59 59 59 60 59 58 59 60
235 234 234 236 239 241 242 244 246 249 252 253 255 257 260 268 275 276 276 277 277 277 275 273 270 273 277 280 280 279 281 283 285 287 289 292 296 297 300 304 309 311 303 292 287 291 294 277 260 246 196 184 187 162 145 142 118 88 75 68 87 95 103 116 113 104 93 77 64 51 42 41 43 43 45 52 58 61 62 63 66 68 68 68 67 67 66 64 62 62 61 61 61 61 61 61 61
234 234 235 236 239 241 242 243 244 247 250 253 255 256 260 268 272 273 275 275 276 276 274 272 270 271 277 281 282 281 280 281 282 285 288 292 295 296 303 308 310 306 296 289 283 287 283 254 240 214 185 186 181 152 140 138 113 86 81 82 91 90 100 116 115 102 86 70 59 49 44 46 51 53 58 62 64 66 67 69 69 69 70 70 69 69 70 69 66 66 65 64 64 63 63 63 62
231 232 233 235 237 238 240 241 243 245 247 251 253 256 261 264 266 269 270 271 274 277 275 272 270 272 279 283 284 285 285 284 283 286 288 292 292 296 306 311 308 299 292 283 278 281 263 235 223 195 181 188 172 143 142 136 105 87 87 87 94 89 93 106 111 99 79 64 54 50 52 58 63 66 68 68 68 68 69 70 69 68 70 71 71 71 72 72 70 68 67 67 66 65 64 64 63
229 231 232 233 234 234 236 239 240 243 245 248 251 254 259 263 266 267 265 269 277 280 276 272 273 277 281 282 283 286 289 289 288 287 288 290 291 297 308 310 301 292 286 276 274 271 241 222 208 188 182 185 165 140 141 129 99 92 84 89 92 87 88 96 102 97 81 66 57 59 66 71 74 75 74 72 71 71 71 71 70 70 71 71 71 71 71 71 70 68 67 67 66 64 64 63 63
221 226 227 229 230 231 232 232 231 235 240 242 245 250 258 265 269 266 264 271 278 279 277 275 276 281 283 284 287 290 292 292 291 288 287 288 291 300 308 305 289 283 277 268 268 256 225 212 198 185 182 180 156 136 138 123 102 97 84 90 89 86 89 92 97 99 92 79 71 75 80 83 82 81 79 77 77 76 75 74 73 73 72 71 71 70 69 69 70 69 67 67 66 64 64 65 66
215 217 219 221 224 225 223 221 222 228 231 232 236 246 254 260 262 260 262 268 273 275 275 277 279 281 282 283 288 293 294 293 291 289 289 289 293 301 304 291 272 272 265 260 261 239 214 204 191 182 182 173 147 135 135 120 110 98 87 91 90 91 91 92 101 104 100 91 86 87 89 89 87 86 84 83 82 79 77 76 74 74 74 73 71 69 68 68 70 70 69 68 68 67 68 71 73
215 215 214 214 217 218 215 213 218 223 227 232 238 243 247 251 253 254 258 267 272 270 267 272 274 276 277 280 287 292 293 291 290 292 293 293 296 298 293 272 256 259 255 256 251 224 208 198 186 179 179 166 143 137 133 121 116 106 99 96 97 97 96 100 106 105 100 96 95 95 94 94 94 93 90 87 84 80 78 77 75 75 75 75 72 69 67 68 69 70 71 72 73 76 78 80 82
214 216 215 212 212 213 212 212 217 222 228 235 238 240 246 250 252 255 261 268 270 267 266 267 267 271 276 284 293 297 295 293 292 294 296 297 296 290 276 251 242 246 248 252 237 214 204 193 182 176 177 160 141 137 132 126 124 123 111 103 104 104 104 109 109 106 102 99 100 101 99 98 98 97 94 90 85 81 78 75 75 75 75 74 71 69 68 69 70 72 75 78 82 84 86 86 87
217 216 215 214 214 214 214 217 221 225 230 236 237 239 246 251 254 258 262 265 267 267 267 268 269 273 281 293 302 305 302 300 296 295 299 298 291 277 261 235 231 239 243 242 223 210 200 189 179 175 174 156 142 139 134 134 131 131 119 109 111 111 113 115 112 108 104 103 104 106 106 103 101 99 96 91 86 82 75 72 73 75 76 75 74 74 74 74 74 78 83 86 88 88 89 89 90
227 223 220 218 219 219 220 223 226 229 232 236 239 241 246 250 254 256 257 259 264 264 264 266 270 276 285 295 305 308 304 304 303 303 306 301 280 266 257 226 227 233 235 228 212 206 195 185 177 174 172 154 143 141 138 140 135 131 120 116 119 119 120 119 116 113 109 107 106 107 108 105 104 100 95 91 86 80 74 71 73 75 77 78 78 78 80 81 81 86 90 91 92 92 91 92 92
236 234 230 227 226 225 225 227 230 232 234 236 239 242 244 248 252 252 253 259 264 263 262 264 269 278 287 297 309 308 301 305 308 310 313 305 270 260 249 219 218 221 223 214 207 202 188 183 177 174 170 152 143 141 142 143 134 130 122 123 127 125 125 122 119 118 114 112 110 109 108 108 107 101 95 91 84 78 76 74 74 77 79 80 81 83 85 86 87 90 92 93 94 93 93 92 90
240 241 239 236 234 231 230 232 234 235 236 237 240 243 244 248 249 250 252 257 262 263 263 268 274 280 287 299 311 308 305 309 310 311 318 303 257 252 210 203 203 206 211 206 207 199 184 181 177 174 169 152 145 144 147 145 133 128 124 129 134 130 129 125 121 120 118 117 115 114 112 111 109 102 95 91 86 83 80 79 77 79 81 81 82 84 86 87 87 89 91 93 93 91 90 89 86
242 243 241 239 239 238 237 238 238 240 240 240 242 244 246 248 248 248 250 250 255 261 265 270 274 277 284 296 306 309 311 315 312 310 316 276 245 226 195 198 193 193 201 205 209 194 181 181 176 175 169 153 147 147 150 145 132 127 127 135 139 136 134 130 126 125 123 119 117 117 115 113 110 103 98 94 91 88 84 82 80 79 80 82 82 84 85 85 86 88 90 91 89 87 86 84 83
240 241 241 240 240 241 243 244 243 244 245 244 245 246 247 248 248 248 249 250 252 257 260 263 268 273 285 297 307 312 313 319 318 308 306 264 231 201 201 205 189 185 195 207 210 190 179 179 177 176 169 154 149 151 151 143 132 129 132 140 143 140 138 134 131 131 130 125 120 118 115 113 111 105 102 100 96 90 86 84 82 79 79 80 81 83 85 86 87 89 89 88 86 84 83 82 82
237 236 238 239 240 240 243 246 246 245 247 247 248 248 248 250 250 249 250 251 251 252 250 254 268 275 281 292 302 308 308 317 318 300 296 260 220 186 204 211 193 186 194 210 213 191 179 177 177 178 170 155 153 154 150 140 133 131 135 144 148 146 143 138 136 136 136 133 128 124 118 115 110 105 102 100 96 91 88 85 83 82 80 80 79 80 81 81 81 81 81 80 78 76 77 78 79
236 236 238 240 242 244 245 249 250 250 250 250 251 251 250 253 255 253 253 253 250 249 243 246 265 273 272 279 291 297 302 311 311 292 286 248 216 182 196 211 203 196 196 209 214 194 181 176 177 178 170 158 156 156 148 139 135 135 140 148 152 150 148 143 140 139 137 134 130 126 123 118 110 104 102 97 94 94 91 87 85 85 85 83 82 80 79 77 75 73 72 70 68 66 65 65 65
240 240 241 242 245 247 248 250 252 253 252 251 252 252 251 253 257 256 256 257 255 253 248 244 253 265 270 273 283 292 298 307 306 288 269 238 216 185 188 206 210 209 203 208 211 197 183 177 177 177 171 162 160 158 149 142 139 140 145 151 155 155 153 149 144 144 142 138 133 129 125 122 114 108 106 100 96 96 95 91 88 87 87 86 84 82 79 77 74 71 68 65 62 60 58 57 56
244 244 244 244 245 247 248 250 252 253 254 253 252 253 252 252 255 255 256 258 259 257 254 251 249 253 265 274 283 289 294 300 298 278 257 234 213 189 183 198 210 217 215 211 208 197 185 176 177 178 172 165 164 162 153 148 146 145 148 153 158 158 156 153 151 151 152 148 142 136 131 127 119 113 110 106 100 99 97 95 91 87 85 84 83 81 79 76 72 68 64 60 56 53 52 50 49
243 244 245 244 244 245 245 246 249 251 253 253 252 252 252 252 253 255 257 258 259 261 259 256 252 249 257 271 280 282 288 292 285 262 245 231 214 193 184 195 207 218 223 216 203 195 185 177 177 179 173 169 170 166 156 151 149 148 152 155 160 161 158 157 155 157 159 157 150 143 139 133 125 120 118 114 109 104 100 98 97 93 87 84 81 77 73 71 67 63 59 56 52 49 47 44 43
243 244 246 246 245 244 243 243 245 246 248 251 251 251 251 252 254 256 258 258 259 263 264 259 252 248 253 264 269 273 280 281 267 247 235 231 219 195 185 199 211 220 227 221 202 194 187 178 178 179 175 172 174 170 160 153 152 152 154 157 162 163 162 159 156 157 160 159 155 148 143 138 129 125 123 120 115 109 103 101 101 97 92 84 79 72 66 62 59 56 52 50 47 46 44 41 39
244 245 246 248 246 244 244 243 243 244 246 249 250 251 253 255 257 257 258 258 257 260 263 260 251 244 246 254 258 263 270 265 252 240 230 228 224 205 190 198 214 224 230 228 206 193 188 180 179 181 178 174 175 173 166 160 158 157 157 160 164 166 166 163 159 157 157 158 156 151 146 140 134 131 128 126 121 116 111 105 100 98 92 82 74 68 61 57 52 48 44 41 39 40 41 40 38
244 245 246 247 247 245 245 244 245 244 246 249 251 252 255 256 257 257 258 259 257 257 260 262 258 250 244 244 247 252 259 255 245 236 227 227 228 218 203 199 214 226 231 231 209 194 189 183 181 185 182 176 175 176 173 168 165 163 163 164 165 168 171 170 168 164 161 160 157 154 151 145 141 139 139 138 133 127 120 110 101 94 88 81 71 62 56 51 46 41 36 34 31 31 33 35 35
243 243 244 245 246 246 245 245 246 246 246 249 251 252 254 255 256 256 257 258 258 259 259 261 262 260 253 243 240 243 248 251 246 235 226 225 227 223 213 207 216 229 232 230 209 194 189 184 184 189 186 178 177 179 177 174 172 171 169 170 170 173 176 178 177 175 172 168 164 160 158 153 149 148 148 149 144 136 126 116 106 95 83 74 68 60 54 48 42 36 32 29 26 25 27 29 30
242 242 242 244 245 246 246 246 246 247 246 247 251 251 252 254 256 257 257 256 257 259 258 257 259 262 259 249 241 240 240 245 246 237 229 226 225 222 215 209 214 229 234 228 211 196 189 186 187 192 190 182 179 181 181 179 177 177 176 176 176 176 177 179 181 181 180 177 173 170 167 163 159 157 155 156 153 147 139 133 125 111 88 72 63 58 52 43 35 31 30 30 25 23 23 24 25
241 241 242 243 245 246 247 246 246 247 246 247 250 252 252 254 256 257 257 256 256 256 255 254 253 256 259 253 243 240 239 241 243 238 233 231 228 224 217 211 213 223 233 230 216 203 193 188 190 193 192 187 182 183 184 183 182 182 183 181 178 177 178 179 180 180 180 180 177 174 173 171 169 166 164 163 162 158 155 149 139 124 103 83 67 55 43 33 26 23 27 31 28 24 21 20 19
240 241 242 242 244 245 246 247 247 247 248 248 250 252 253 254 255 256 256 256 255 254 251 250 249 249 254 253 244 239 239 239 240 237 234 233 229 225 218 212 211 216 228 233 222 209 198 191 192 193 194 192 186 185 187 186 186 185 184 182 181 181 181 181 180 180 180 181 180 178 178 178 176 174 171 170 169 167 167 160 148 136 120 101 75 48 31 23 18 16 22 29 29 25 20 16 15
240 241 242 243 244 246 247 248 248 248 249 251 250 251 251 251 251 254 256 255 253 252 250 249 248 246 248 250 242 236 236 236 235 233 232 233 229 223 217 211 208 209 219 229 223 212 201 194 195 194 195 195 191 188 189 189 188 187 184 184 185 184 184 183 183 183 182 183 184 183 184 183 181 180 179 179 179 178 179 175 163 150 138 120 77 30 16 13 13 13 18 24 26 23 19 14 12
241 242 243 244 245 246 248 248 248 249 251 251 249 247 248 249 250 252 252 252 251 251 252 251 249 246 247 248 242 235 234 234 233 230 229 232 229 224 218 211 206 205 213 223 222 215 205 198 197 196 195 197 195 192 192 191 189 186 185 187 187 186 185 186 186 186 185 185 185 186 187 186 186 187 188 189 190 190 191 190 180 166 158 142 30 5 4 6 7 8 11 15 16 17 15 11 8
242 243 243 244 245 246 248 249 249 250 249 248 246 244 244 246 248 248 248 250 251 252 253 252 249 247 248 248 244 237 233 233 232 228 226 230 231 225 218 212 207 204 209 221 225 220 212 203 199 198 197 198 198 196 195 193 189 187 187 188 188 186 186 187 187 188 187 186 186 187 189 190 191 192 195 197 200 202 204 206 207 206 221 275 324 341 350 356 358 357 359 2 3 5 7 5 3
243 243 244 244 245 246 247 248 248 245 243 244 244 243 242 243 246 248 250 251 253 253 253 252 249 245 246 246 245 239 231 231 231 227 225 226 228 225 217 213 209 204 205 218 228 226 220 211 203 199 198 200 201 200 197 194 190 189 188 187 187 187 187 187 187 188 188 188 188 189 190 192 195 196 198 202 205 210 213 215 221 230 249 278 303 322 333 337 339 340 342 344 347 351 353 354 354
240 241 241 241 242 243 243 244 242 240 240 242 245 245 245 245 247 250 252 252 253 254 254 254 251 246 243 243 244 240 229 227 229 225 224 224 224 222 217 215 213 207 204 212 222 225 223 218 209 202 200 201 203 203 200 195 192 190 188 188 187 187 187 186 186 187 189 190 190 190 190 190 193 195 198 203 207 210 216 220 224 236 253 278 299 314 322 325 325 326 328 331 335 339 341 343 344
235 235 236 237 238 239 239 240 239 238 238 241 245 247 245 245 247 249 251 251 253 255 256 257 256 251 246 243 243 239 227 223 225 224 223 222 222 223 219 218 218 212 205 206 213 219 220 217 210 203 202 203 205 205 202 198 194 192 189 189 188 188 188 187 186 188 189 190 191 191 191 192 195 201 204 207 209 213 219 225 234 245 257 276 294 306 313 316 317 317 320 325 330 335 336 336 336
234 235 236 237 237 238 238 238 238 239 239 242 247 248 246 247 249 251 252 253 253 256 258 258 255 251 247 241 236 232 226 222 220 223 224 220 220 222 221 221 221 214 205 201 207 213 218 218 211 205 204 205 206 205 203 200 197 195 191 189 189 190 189 188 189 191 193 194 194 195 197 200 205 211 214 218 219 222 226 233 242 252 261 271 282 293 301 307 310 312 316 322 327 332 334 333 333
232 233 234 235 235 235 236 237 238 240 242 244 246 246 246 247 250 252 252 252 251 252 254 254 251 248 244 237 227 224 227 224 217 220 224 220 219 220 221 222 219 216 209 202 204 209 215 219 214 208 205 206 206 205 203 201 199 197 194 192 192 192 192 192 195 197 199 199 200 202 204 207 213 219 224 228 231 233 236 238 243 250 259 267 276 284 292 299 304 308 313 318 323 326 328 329 330
229 231 231 232 233 234 235 237 240 241 242 243 244 245 245 247 249 250 250 249 248 246 246 245 243 241 239 235 224 217 225 227 219 218 223 222 220 219 220 219 214 214 213 209 207 207 212 217 216 211 208 208 208 206 204 202 201 199 196 194 195 196 196 198 201 203 204 205 207 210 212 214 219 225 230 236 239 242 243 244 246 250 257 266 273 280 286 294 301 306 311 315 319 322 323 324 325
229 230 231 232 233 234 235 238 240 240 240 241 242 244 245 246 248 248 248 248 247 244 242 240 237 234 233 233 225 216 221 227 222 217 220 223 222 219 221 220 214 213 212 210 210 208 209 214 216 214 213 212 210 208 206 204 204 202 198 197 198 200 202 204 207 209 209 212 216 219 222 225 229 233 237 241 244 247 249 251 253 255 259 264 271 279 286 293 300 304 308 313 316 318 320 321 321
229 230 233 234 235 235 235 236 237 237 238 239 241 243 244 244 245 246 246 246 246 245 243 240 237 232 227 227 226 218 217 224 224 217 217 223 222 220 222 223 220 217 211 208 209 207 207 212 215 216 216 216 213 211 209 208 207 205 201 200 201 203 207 209 211 213 214 218 222 227 230 233 236 239 241 245 249 252 254 255 258 261 263 265 269 278 285 291 297 302 307 311 314 316 318 319 319
230 231 233 236 237 236 237 237 237 238 239 240 242 243 243 243 243 244 244 245 246 245 243 240 237 233 225 223 226 221 216 222 225 219 216 220 221 221 224 223 220 216 210 207 207 206 204 209 214 216 218 220 218 215 213 211 210 207 204 204 205 208 211 213 216 218 221 225 229 233 236 238 240 242 244 248 252 256 258 258 259 262 264 267 270 275 282 289 295 301 305 308 312 315 316 318 318
228 228 230 233 235 233 234 237 237 237 238 240 241 242 242 242 243 244 245 247 248 246 242 239 237 233 225 222 225 224 217 220 226 222 216 218 219 220 222 222 220 217 212 209 209 207 203 204 211 216 220 222 222 219 217 215 212 209 206 206 208 211 214 217 220 223 226 230 234 236 239 241 243 246 249 251 255 258 260 259 259 260 263 267 271 274 280 289 295 300 303 306 309 312 315 317 318